Theta_e
311 311 312 312 312 313 315 316 318 317 314 312 312 312 312 312 312 313 314 315 318 318 317 315 316 318 319 319 318 318 323 326 331 339 340 336 334 332 334 329 332 330 327 320 317
312 312 312 312 312 312 313 316 318 320 320 319 317 315 313 313 313 314 314 315 317 318 315 316 317 319 319 318 318 320 323 324 323 337 339 336 332 336 332 332 334 334 326 318 318
312 312 312 312 312 313 313 314 316 319 319 319 318 318 318 321 324 318 315 315 319 317 316 317 318 319 320 317 317 318 323 326 330 336 337 336 336 336 333 335 335 335 330 320 318
312 312 312 312 313 313 313 313 315 317 319 319 318 319 321 323 325 325 318 319 317 316 316 318 319 319 320 321 318 321 328 335 336 336 336 337 337 337 335 333 334 334 332 325 321
312 312 312 313 313 313 315 318 318 318 317 319 319 319 321 323 326 325 327 322 318 316 316 317 319 318 322 320 319 320 333 336 335 336 336 337 338 337 335 335 333 332 334 333 329
312 312 312 313 313 313 317 320 319 319 321 318 319 319 320 324 325 321 320 323 320 317 317 317 319 319 319 319 321 332 338 337 336 336 335 337 336 335 335 335 333 332 335 335 335
312 312 312 313 313 314 317 320 320 320 320 318 318 318 320 325 327 323 316 320 319 316 317 319 319 318 318 331 336 337 339 338 338 337 336 335 337 337 336 335 335 334 335 334 335
312 312 312 312 313 314 316 318 320 319 320 321 317 317 320 324 327 327 319 315 315 316 318 319 319 318 327 333 328 338 338 341 338 337 335 336 341 334 336 336 335 335 335 335 335
312 312 312 312 313 314 315 318 319 319 322 319 320 319 319 324 325 324 322 318 318 319 319 319 318 316 326 334 337 329 338 340 339 338 337 338 341 336 337 337 336 337 337 337 338
312 312 312 312 312 313 315 318 319 318 320 318 319 319 318 323 322 323 323 322 321 320 318 318 317 319 317 332 332 333 337 337 339 340 338 339 341 337 336 337 338 340 340 340 340
311 312 311 311 312 313 316 319 318 317 317 318 318 317 318 319 321 322 322 322 322 320 322 317 320 321 319 318 324 323 328 338 333 337 340 341 340 340 337 337 338 340 342 343 344
309 310 310 310 311 313 315 317 311 312 314 318 317 317 317 318 318 321 322 322 321 322 319 321 320 319 316 316 318 319 322 330 322 321 340 340 342 339 336 338 337 339 342 344 346
307 308 309 310 311 311 313 313 311 315 317 317 318 318 317 317 319 321 322 321 321 321 321 321 320 318 319 318 319 319 320 321 322 329 333 332 331 333 335 337 339 339 341 344 346
307 308 309 310 310 310 313 310 311 317 319 318 322 320 317 318 320 322 323 322 320 322 320 321 320 320 320 321 321 322 320 321 326 329 327 330 326 336 337 338 338 340 341 343 346
309 309 310 310 310 310 310 310 313 317 317 322 322 320 319 321 321 321 322 323 322 321 321 322 320 321 321 322 321 323 320 321 326 327 328 334 332 330 335 339 339 339 341 342 344
310 310 311 310 311 310 310 310 318 319 317 324 320 320 320 320 320 319 320 320 320 321 320 321 318 320 322 321 320 319 322 322 321 324 325 327 333 326 330 337 337 338 340 340 343
312 312 312 311 311 311 310 313 319 318 317 324 322 320 320 320 320 321 322 322 322 322 322 321 321 321 321 322 320 321 326 325 325 325 325 322 329 328 330 326 331 338 340 340 341
315 314 313 312 312 311 310 318 318 315 317 321 319 319 322 320 320 321 321 322 319 320 321 322 321 321 322 323 325 324 327 325 325 325 324 321 325 325 326 323 328 331 334 332 333
315 315 313 312 313 312 312 316 316 315 318 318 318 322 321 321 321 321 321 321 321 320 324 322 321 320 321 322 323 322 324 322 325 321 323 324 325 326 328 330 330 337 337 334 330
312 314 311 314 313 308 315 312 314 312 318 317 317 320 322 321 322 322 322 321 321 319 321 324 323 321 322 322 320 323 321 326 325 327 326 326 327 327 332 332 332 336 337 337 336
308 310 312 313 310 315 313 314 313 314 317 318 318 320 320 321 320 321 322 323 321 320 318 321 325 323 322 324 325 323 323 323 326 326 327 328 327 330 332 334 333 333 336 337 338
306 310 311 311 314 313 317 315 315 318 317 318 318 319 318 319 321 321 321 324 322 321 323 321 325 325 323 321 322 323 326 328 327 329 325 327 327 325 329 330 331 332 334 333 333
303 304 306 311 314 314 315 318 317 319 319 319 320 319 319 320 321 321 322 321 320 324 326 323 326 327 327 324 323 325 324 325 326 327 329 327 327 326 325 325 326 329 330 332 334
304 308 308 311 310 314 316 317 316 318 319 319 320 319 320 320 320 322 320 321 321 323 322 323 326 330 328 327 325 326 325 323 327 330 328 327 327 328 328 329 329 328 328 328 331
303 305 308 311 313 312 312 315 318 319 318 318 319 319 321 322 321 321 320 321 321 324 323 328 330 325 325 324 322 325 324 325 326 328 329 327 327 328 330 328 328 327 325 324 324
303 308 309 311 310 312 312 315 318 317 317 318 320 320 319 320 320 321 321 322 323 324 326 323 328 326 326 325 325 326 327 326 326 326 326 327 328 327 326 325 324 325 326 325 325
304 306 305 306 309 310 312 315 315 314 316 315 315 316 317 317 316 317 318 319 321 324 326 328 328 329 327 326 327 328 327 327 327 327 327 328 328 327 326 326 326 326 326 325 324
Wind_Speed
21 21 21 21 21 20 20 18 16 14 12 10 8 5 3 2 4 6 7 7 12 7 7 8 10 9 5 3 3 2 1 3 4 7 5 10 6 9 4 16 5 6 7 16 26
21 21 21 21 20 19 18 16 14 13 12 11 8 6 4 2 3 4 6 10 11 7 7 10 12 8 3 4 3 2 2 2 2 6 9 16 14 11 9 14 6 6 15 24 26
21 21 21 21 20 19 18 15 12 12 11 10 9 8 6 3 4 3 7 11 9 8 9 11 8 7 4 3 3 2 2 2 3 9 8 13 11 5 17 10 9 14 25 27 27
21 21 21 20 20 19 18 14 12 10 10 10 9 10 7 2 3 5 5 5 8 10 10 8 6 5 4 4 4 3 2 1 3 5 9 11 11 7 8 5 8 16 28 28 26
21 21 21 20 20 19 16 13 13 11 8 8 9 10 8 2 2 3 3 8 7 9 8 5 4 5 4 3 4 4 1 4 5 9 8 9 6 4 10 5 11 24 28 27 24
23 22 21 20 20 19 14 14 12 13 8 6 7 9 7 1 2 5 4 9 10 10 7 4 1 1 4 2 1 2 4 5 5 9 7 5 3 2 10 7 15 28 27 26 25
23 22 22 21 20 18 13 13 13 15 8 5 6 8 7 2 2 4 4 8 9 8 4 2 2 1 3 4 5 5 6 7 6 4 4 3 4 7 5 11 20 24 25 27 27
24 23 22 21 20 18 14 14 14 16 8 4 6 7 5 3 1 1 4 7 8 8 5 5 3 2 2 10 3 3 3 7 3 5 2 5 11 6 9 15 19 23 22 23 24
25 24 23 22 19 17 14 14 16 15 5 5 6 4 3 3 4 3 4 6 5 3 5 7 3 3 6 7 4 2 8 5 4 6 4 8 10 0 10 14 17 20 21 21 21
25 24 23 22 19 16 13 15 14 8 4 9 5 3 5 5 1 2 7 8 4 0 2 1 1 2 2 5 7 8 5 4 4 8 6 7 13 5 8 14 18 19 20 20 21
25 24 23 21 20 14 11 13 11 3 13 10 11 10 13 6 4 6 10 8 6 3 3 3 4 6 3 1 2 7 5 13 5 6 10 18 19 12 9 13 17 20 19 20 21
24 23 22 20 18 10 8 6 9 10 13 19 20 23 24 11 3 7 8 7 5 4 4 3 7 4 3 2 2 3 5 7 3 1 10 9 19 12 13 16 23 22 23 22 20
22 22 21 19 10 14 6 9 15 16 6 9 5 6 10 15 8 9 13 9 4 6 6 7 3 6 6 5 5 3 6 5 5 4 5 1 10 13 11 16 14 23 24 25 27
21 22 21 18 6 15 3 11 15 9 3 4 2 1 8 8 4 13 15 6 3 8 6 5 5 5 7 6 10 8 15 7 11 9 3 9 5 5 8 11 19 22 27 29 30
20 21 20 17 16 12 6 12 11 3 4 2 1 2 9 9 4 6 16 11 7 6 5 3 7 9 6 6 13 7 9 14 10 7 4 8 5 3 1 11 17 25 30 32 34
19 21 21 18 16 7 12 8 1 1 5 2 3 2 5 6 2 5 6 7 5 5 3 6 2 4 4 3 8 10 6 5 4 4 6 7 8 7 5 10 17 24 27 33 31
19 18 21 17 14 13 7 2 1 4 4 1 1 1 3 6 7 4 8 8 7 5 7 3 5 3 5 4 3 7 7 5 7 7 8 2 6 10 7 10 10 14 22 26 26
19 17 17 16 8 8 3 2 4 2 5 3 3 4 5 5 4 5 4 9 3 3 2 4 7 7 6 9 5 8 4 5 7 7 9 4 6 6 5 6 8 10 14 15 21
20 16 13 10 6 6 8 3 5 4 3 6 6 2 2 1 3 5 7 6 9 12 8 5 5 2 3 2 2 5 5 2 4 1 3 3 4 9 7 8 9 12 12 15 14
19 16 7 10 5 10 2 4 4 4 3 2 2 2 1 2 3 5 7 4 4 11 4 6 4 1 1 3 6 2 8 3 1 5 9 4 3 5 5 10 9 10 11 9 5
16 9 8 2 6 4 3 5 4 7 4 2 2 3 2 3 2 2 3 1 4 3 5 5 4 5 3 4 5 4 3 3 1 2 10 12 8 7 11 9 8 10 11 10 9
7 3 1 3 1 1 3 4 2 3 3 3 2 4 4 3 3 2 3 3 6 7 6 5 3 4 11 0 1 2 4 7 7 6 2 4 8 5 9 9 11 14 12 13 13
10 5 4 5 3 2 3 4 4 3 3 3 2 4 1 1 3 3 4 6 8 8 8 8 3 3 3 3 2 5 6 5 3 2 8 9 6 4 8 10 13 15 15 17 16
5 2 2 2 3 3 4 4 5 6 5 5 4 3 5 3 5 5 3 3 6 4 6 12 4 5 8 4 2 4 5 7 10 7 12 11 14 7 10 11 10 14 13 13 16
3 1 2 2 2 4 2 4 4 3 3 3 3 6 4 4 2 5 5 7 8 3 3 2 8 7 7 7 5 8 10 9 12 14 11 15 10 13 12 7 9 10 9 11 16
2 1 2 3 5 4 2 2 3 6 4 8 7 9 7 7 9 8 7 6 8 2 4 3 8 7 8 10 11 13 12 9 12 11 11 13 12 13 10 9 11 14 14 17 20
1 2 1 2 2 2 1 1 2 7 3 1 10 10 7 7 7 13 16 18 13 4 3 3 6 7 15 9 10 13 14 17 14 11 12 15 16 4 8 11 13 14 14 17 20
Wind_Direction
14 12 9 9 6 4 7 10 14 14 18 17 14 11 4 305 247 232 229 180 167 175 175 161 156 156 174 179 144 125 179 199 185 174 153 160 137 150 117 135 122 166 141 161 158
10 8 7 6 3 1 360 2 6 9 12 14 12 6 2 320 268 234 185 173 177 163 169 162 158 167 175 184 171 191 219 212 193 196 181 164 149 148 140 146 135 153 153 162 163
4 4 4 1 359 357 355 352 356 359 4 10 11 6 359 4 92 81 147 166 170 172 167 162 172 190 175 165 180 171 252 352 212 196 174 156 137 145 151 185 191 180 163 169 169
1 1 2 358 356 355 352 351 349 348 352 358 1 2 6 55 93 117 149 155 179 180 179 171 181 165 167 183 179 243 281 277 124 161 154 157 137 160 176 204 192 174 172 170 174
358 357 357 355 352 352 353 356 343 340 340 344 347 351 355 355 89 92 183 194 195 194 193 176 164 153 170 187 165 227 84 58 91 125 100 128 139 141 184 167 188 170 177 176 178
354 354 354 352 349 349 350 350 353 344 326 319 327 336 342 278 69 47 153 182 200 208 206 202 267 189 118 86 327 84 111 120 81 103 85 143 121 172 192 188 169 177 182 184 186
351 351 350 349 347 347 342 344 336 343 322 304 303 313 308 270 95 68 126 175 204 211 208 247 316 248 143 123 120 122 123 124 62 99 98 123 209 219 158 181 178 186 186 191 193
347 348 348 347 345 343 337 333 330 333 321 288 289 297 273 245 318 124 147 180 196 206 219 286 309 174 109 120 99 147 150 163 122 153 97 201 232 203 173 174 181 191 197 199 203
344 345 347 345 344 339 332 335 327 324 291 298 292 245 242 184 154 104 154 167 171 258 259 257 275 128 133 143 133 44 170 182 144 179 147 209 242 137 190 187 188 195 198 203 209
341 343 346 343 343 337 330 334 323 304 285 305 269 237 231 174 193 255 190 190 183 130 146 213 132 176 124 200 191 168 153 187 215 184 207 219 237 167 194 207 204 201 202 206 211
339 341 345 344 344 340 338 347 356 345 303 257 257 267 270 278 263 166 187 191 199 158 175 25 235 229 234 249 171 127 144 191 207 180 197 224 244 222 216 219 218 209 208 211 214
338 340 344 346 347 2 357 50 26 315 302 289 279 257 247 248 297 188 176 165 169 177 135 172 237 234 130 106 82 121 134 192 293 116 212 235 251 252 232 230 221 218 214 213 211
338 339 343 349 353 360 10 18 348 335 275 300 283 250 231 215 217 209 179 171 160 170 188 218 133 139 180 157 165 213 203 182 239 104 182 97 264 248 227 219 222 223 223 218 214
339 337 343 351 354 352 13 339 336 332 311 281 270 220 174 159 218 215 189 167 156 213 172 230 174 191 180 207 194 204 216 191 174 175 208 193 259 235 233 225 221 224 220 220 216
337 333 337 343 333 343 338 334 328 355 323 45 88 158 165 183 136 196 206 195 188 173 184 216 180 184 217 227 184 222 180 185 186 182 178 187 245 224 215 220 228 226 225 224 221
333 327 325 331 331 324 318 331 17 282 254 349 133 168 159 228 196 123 160 186 181 152 215 241 208 223 233 170 187 145 118 105 108 167 228 216 237 236 204 221 234 236 236 234 228
328 323 314 321 313 308 312 348 202 226 352 359 73 93 238 191 210 173 166 174 191 187 224 225 232 231 185 199 134 186 177 191 220 219 250 146 214 254 246 239 255 258 245 247 240
324 320 311 311 299 292 208 112 211 259 260 322 327 302 212 180 198 196 174 211 193 165 146 210 232 199 174 218 216 191 213 199 225 232 252 156 218 236 276 248 259 275 277 264 247
328 323 312 301 301 246 171 180 221 221 322 332 308 285 219 217 201 182 200 219 204 183 202 183 254 278 228 162 220 152 199 77 122 78 242 207 240 271 228 244 257 268 283 279 265
338 330 310 312 280 166 160 226 228 218 313 334 304 5 272 301 218 199 186 174 196 204 218 198 259 233 65 108 54 193 138 153 196 230 249 211 238 240 204 222 219 251 257 281 253
338 328 336 19 142 185 209 227 259 250 224 230 281 293 296 308 312 261 210 170 200 114 180 146 220 210 260 210 211 153 188 71 123 251 255 262 252 209 213 213 232 244 251 260 241
348 308 340 150 284 349 211 208 252 261 161 248 227 234 252 299 295 271 245 251 180 160 165 175 162 234 243 65 315 202 218 189 242 226 235 282 252 191 220 212 209 239 245 248 244
335 285 282 259 253 243 290 282 263 249 214 185 227 215 175 249 317 256 272 283 233 183 178 180 193 232 226 170 155 223 194 173 110 87 207 239 251 189 229 234 232 238 238 242 239
341 316 344 122 70 345 353 280 262 274 253 222 236 252 268 256 235 273 263 281 332 246 214 154 159 198 234 236 159 235 226 216 207 226 243 236 257 239 231 232 245 249 251 250 255
356 27 337 336 89 358 310 313 304 283 281 262 216 215 178 217 232 230 256 292 278 215 153 230 209 194 241 248 224 240 235 206 222 247 241 256 225 245 252 266 246 234 248 252 259
357 34 347 291 305 303 225 208 317 327 314 284 277 307 253 241 245 276 293 281 264 223 217 179 239 196 234 224 229 245 240 225 226 238 250 258 258 244 260 257 259 261 258 248 258
26 4 314 282 314 291 270 310 49 1 279 0 5 337 309 274 313 285 274 267 259 286 270 244 199 183 240 227 235 249 224 230 234 231 238 247 260 255 243 238 249 259 266 270 278